Regional Weather Roundup
Issued by NWS

Home | Current Version | Previous Version | Graphics & Text | Print | Product List | Glossary On
Versions: 1 2 3 4 5 6 7 8 9 10 11 12 13 14 15 16 17 18 19 20 21 22 23 24 25 26 27 28 29 30 31 32 33 34 35 36 37 38 39 40 41 42 43 44 45 46 47 48 49 50
000
ASUS43 KLSX 152159
RWRMO

WEATHER SUMMARY FOR MISSOURI
NATIONAL WEATHER SERVICE SPRINGFIELD MO
500 PM CDT TUE APR 15 2014

NOTE: "FAIR" INDICATES FEW OR NO CLOUDS BELOW 12,000 FEET WITH NO
       SIGNIFICANT WEATHER AND/OR OBSTRUCTIONS TO VISIBILITY.
       CURRENT SKY AND/OR WEATHER CONDITIONS ARE NOT AVAILABLE FOR
       CHILLICOTHE AND FARMINGTON.

MOZ001>031-035>038-043-044-053-054-152300-
...NORTHERN AND WESTERN MISSOURI...

CITY           SKY/WX    TMP DP  RH WIND       PRES   REMARKS
KANSAS CTY INT MOSUNNY   53  25  33 SW12      30.07F
KANSAS C DTWN  SUNNY     56  26  31 S10       30.08F
LEE`S SUMMIT   SUNNY     52  25  35 VRB6      30.09F
ST JOSEPH      SUNNY     54  25  32 S14       30.06F
CHILLICOTHE      N/A     50  22  33 S8        30.12F
KIRKSVILLE     SUNNY     49  14  24 SW8       30.12F

$$
MOZ066>068-077>081-088>096-101>105-152300-
...SOUTHWEST MISSOURI...

CITY           SKY/WX    TMP DP  RH WIND       PRES   REMARKS
SPRINGFIELD    SUNNY     53  21  28 VRB5      30.14F
JOPLIN         SUNNY     56  25  30 CALM      30.13F

$$
MOZ032>034-039>042-045>050-055>058-069>072-152300-
...CENTRAL MISSOURI...

CITY           SKY/WX    TMP DP  RH WIND       PRES   REMARKS
COLUMBIA       SUNNY     48  20  32 SW8       30.15F
JEFFERSON CITY SUNNY     49  19  30 W8        30.16F
ROLLA          SUNNY     47  20  34 VRB7      30.14F
SEDALIA        SUNNY     51  26  37 SW9       30.14F
OSAGE BEACH    SUNNY     50  18  27 CALM      30.16F

$$
MOZ051-052-059>065-152300-
...EAST CENTRAL MISSOURI...

CITY           SKY/WX    TMP DP  RH WIND       PRES   REMARKS
ST LOUIS INTL  MOSUNNY   49  19  30 W10       30.18F
SPIRIT OF STL  SUNNY     48  17  29 NW8       30.17F
ST CHARLES     SUNNY     48  19  31 W8        30.18F

$$
MOZ072>076-082>087-097>100-106>115-152300-
...SOUTH CENTRAL AND SOUTHEAST MISSOURI...

CITY           SKY/WX    TMP DP  RH WIND       PRES   REMARKS
CAPE GIRARDEAU SUNNY     50  21  32 N14       30.20F
FARMINGTON     SUNNY     48  18  29 NW9       30.18F
POPLAR BLUFF   SUNNY     54  16  22 MISG      30.16F
WEST PLAINS    SUNNY     52  22  30 VRB3      30.15F

$$



USA.gov is the U.S. government's official web portal to all federal, state and local government web resources and services.